When you browse on this site, cookies collect data to enhance your experience and personalize the content and advertising you see.
Visit our Privacy Policy to learn more. By continuing to use the site, you agree to this use of cookies and data.
  • In Germany
  • List of Countries
  • For 7 days
  • Water Temperature
  • Weather Map
  • Weather Widgets
  • user-avatar
    Login

    Hourly Weather Idzhewan

    Today, 21 January, Tuesday

    Time Temperature Precipitation Wind Pressure Humidity
    00:00 -2°C° 0 mm 0 mps 697 mmHg 86%
    01:00 -1°C° 0 mm 1 mps 697 mmHg 85%
    02:00 -1°C° 0 mm 1 mps 697 mmHg 83%
    03:00 -2°C° 0 mm 1 mps 697 mmHg 82%
    04:00 -2°C° 0 mm 1 mps 697 mmHg 79%
    05:00 -2°C° 0 mm 1 mps 696 mmHg 77%
    06:00 -2°C° 0 mm 1 mps 696 mmHg 75%
    07:00 -1°C° 0 mm 1 mps 697 mmHg 72%
    08:00 0°C° 0 mm 1 mps 697 mmHg 69%
    09:00 +1°C° 0 mm 1 mps 697 mmHg 66%
    10:00 +3°C° 0 mm 1 mps 697 mmHg 62%
    11:00 +4°C° 0 mm 1 mps 697 mmHg 59%
    12:00 +5°C° 0 mm 1 mps 697 mmHg 56%
    13:00 +5°C° 0 mm 1 mps 696 mmHg 56%
    14:00 +5°C° 0 mm 1 mps 696 mmHg 56%
    15:00 +5°C° 0 mm 1 mps 696 mmHg 56%
    16:00 +4°C° 0 mm 1 mps 696 mmHg 61%
    17:00 +2°C° 0 mm 0 mps 696 mmHg 65%
    18:00 0°C° 0 mm 0 mps 696 mmHg 70%
    19:00 0°C° 0 mm 0 mps 696 mmHg 72%
    20:00 -1°C° 0 mm 0 mps 697 mmHg 74%
    21:00 0°C° 0 mm 1 mps 697 mmHg 76%
    22:00 0°C° 0 mm 1 mps 697 mmHg 75%
    23:00 0°C° 0 mm 1 mps 697 mmHg 75%

    Tomorrow, 22 January, Wednesday

    Time Temperature Precipitation Wind Pressure Humidity
    00:00 -1°C° 0 mm 1 mps 697 mmHg 74%
    01:00 -1°C° 0 mm 1 mps 697 mmHg 75%
    02:00 -1°C° 0 mm 1 mps 697 mmHg 75%
    03:00 -1°C° 0 mm 1 mps 697 mmHg 76%
    04:00 -2°C° 0 mm 1 mps 697 mmHg 74%
    05:00 -4°C° 0 mm 2 mps 696 mmHg 73%
    06:00 -4°C° 0 mm 2 mps 696 mmHg 71%
    07:00 -3°C° 0 mm 2 mps 696 mmHg 68%
    08:00 -2°C° 0 mm 2 mps 697 mmHg 64%
    09:00 -1°C° 0 mm 2 mps 697 mmHg 61%
    10:00 +2°C° 0 mm 1 mps 696 mmHg 58%
    11:00 +3°C° 0 mm 1 mps 696 mmHg 55%
    12:00 +4°C° 0 mm 1 mps 695 mmHg 51%
    13:00 +4°C° 0 mm 1 mps 695 mmHg 52%
    14:00 +3°C° 0 mm 2 mps 694 mmHg 53%
    15:00 +4°C° 0 mm 2 mps 694 mmHg 53%
    16:00 +3°C° 0 mm 1 mps 694 mmHg 57%
    17:00 +2°C° 0 mm 1 mps 694 mmHg 61%
    18:00 +1°C° 0 mm 1 mps 693 mmHg 65%
    19:00 0°C° 0 mm 1 mps 693 mmHg 64%
    20:00 0°C° 0 mm 1 mps 693 mmHg 63%
    21:00 0°C° 0 mm 1 mps 693 mmHg 63%
    22:00 -3°C° 0 mm 2 mps 693 mmHg 62%
    23:00 -3°C° 0 mm 2 mps 692 mmHg 61%

    Day after tomorrow, 23 January, Thursday

    Time Temperature Precipitation Wind Pressure Humidity
    00:00 -3°C° 0 mm 2 mps 692 mmHg 60%
    01:00 -4°C° 0 mm 2 mps 692 mmHg 60%
    02:00 -4°C° 0 mm 2 mps 691 mmHg 60%
    03:00 -4°C° 0 mm 2 mps 691 mmHg 61%
    04:00 -4°C° 0 mm 2 mps 690 mmHg 61%
    05:00 -5°C° 0 mm 3 mps 689 mmHg 62%
    06:00 -5°C° 0 mm 3 mps 689 mmHg 62%
    07:00 -4°C° 0 mm 3 mps 689 mmHg 61%
    08:00 -4°C° 0 mm 3 mps 689 mmHg 59%
    09:00 -2°C° 0 mm 2 mps 689 mmHg 57%
    10:00 +1°C° 0 mm 2 mps 688 mmHg 55%
    11:00 +2°C° 0 mm 2 mps 687 mmHg 52%
    12:00 +3°C° 0 mm 2 mps 687 mmHg 50%
    13:00 +3°C° 0 mm 2 mps 687 mmHg 51%
    14:00 +3°C° 0 mm 2 mps 686 mmHg 52%
    15:00 +3°C° 0 mm 2 mps 686 mmHg 52%
    16:00 +2°C° 0 mm 2 mps 686 mmHg 55%
    17:00 0°C° 0 mm 3 mps 686 mmHg 57%
    18:00 -1°C° 0 mm 3 mps 687 mmHg 59%
    19:00 -1°C° 0 mm 3 mps 687 mmHg 61%
    20:00 -1°C° 0 mm 3 mps 687 mmHg 62%
    21:00 -2°C° 0 mm 4 mps 687 mmHg 63%
    22:00 -1°C° 0 mm 3 mps 688 mmHg 64%
    23:00 -1°C° 0 mm 3 mps 688 mmHg 65%

    24 January, Friday

    Time Temperature Precipitation Wind Pressure Humidity
    00:00 -1°C° 0 mm 2 mps 688 mmHg 66%
    01:00 -2°C° 0 mm 2 mps 688 mmHg 69%
    02:00 -2°C° 0 mm 2 mps 688 mmHg 71%
    03:00 0°C° 0 mm 1 mps 688 mmHg 74%
    04:00 0°C° 0 mm 1 mps 689 mmHg 73%
    05:00 -1°C° 0 mm 1 mps 689 mmHg 73%
    06:00 -1°C° 0 mm 1 mps 689 mmHg 73%
    07:00 -1°C° 0 mm 1 mps 690 mmHg 68%
    08:00 0°C° 0 mm 1 mps 691 mmHg 64%
    09:00 -2°C° 0 mm 2 mps 691 mmHg 60%
    10:00 -1°C° 0 mm 2 mps 691 mmHg 55%
    11:00 -1°C° 0 mm 2 mps 691 mmHg 51%
    12:00 +1°C° 0 mm 2 mps 691 mmHg 47%
    13:00 -1°C° 0 mm 2 mps 691 mmHg 48%
    14:00 -1°C° 0 mm 2 mps 692 mmHg 49%
    15:00 -1°C° 0 mm 2 mps 692 mmHg 50%
    16:00 -2°C° 0 mm 2 mps 692 mmHg 58%
    17:00 -2°C° 0 mm 2 mps 693 mmHg 65%
    18:00 -3°C° 0 mm 2 mps 694 mmHg 72%
    19:00 -4°C° 0.1 mm 2 mps 695 mmHg 73%
    20:00 -2°C° 0.1 mm 1 mps 696 mmHg 73%
    21:00 -3°C° 0.1 mm 1 mps 697 mmHg 74%
    22:00 -3°C° 0 mm 1 mps 697 mmHg 74%
    23:00 -4°C° 0 mm 1 mps 698 mmHg 75%

    25 January, Saturday

    Time Temperature Precipitation Wind Pressure Humidity
    00:00 -4°C° 0 mm 1 mps 698 mmHg 75%
    01:00 -6°C° 0 mm 1 mps 699 mmHg 73%
    02:00 -6°C° 0 mm 1 mps 699 mmHg 70%
    03:00 -6°C° 0 mm 1 mps 699 mmHg 67%
    04:00 -6°C° 0 mm 1 mps 699 mmHg 65%
    05:00 -7°C° 0 mm 2 mps 700 mmHg 63%
    06:00 -8°C° 0 mm 2 mps 700 mmHg 61%
    07:00 -7°C° 0 mm 2 mps 700 mmHg 57%
    08:00 -4°C° 0 mm 1 mps 701 mmHg 52%
    09:00 -3°C° 0 mm 1 mps 702 mmHg 48%
    10:00 -2°C° 0 mm 1 mps 702 mmHg 45%
    11:00 -1°C° 0 mm 1 mps 702 mmHg 42%
    12:00 +1°C° 0 mm 1 mps 702 mmHg 39%
    13:00 +1°C° 0 mm 1 mps 701 mmHg 39%
    14:00 +1°C° 0 mm 1 mps 701 mmHg 40%
    15:00 +1°C° 0 mm 1 mps 701 mmHg 40%
    16:00 0°C° 0 mm 1 mps 701 mmHg 45%
    17:00 -1°C° 0 mm 1 mps 701 mmHg 50%
    18:00 -2°C° 0 mm 1 mps 701 mmHg 54%
    19:00 -2°C° 0 mm 1 mps 701 mmHg 54%
    20:00 -5°C° 0 mm 2 mps 702 mmHg 53%
    21:00 -5°C° 0 mm 2 mps 702 mmHg 52%
    22:00 -5°C° 0 mm 2 mps 702 mmHg 51%
    23:00 -5°C° 0 mm 2 mps 702 mmHg 49%

    26 January, Sunday

    Time Temperature Precipitation Wind Pressure Humidity
    00:00 -5°C° 0 mm 2 mps 702 mmHg 48%
    01:00 -5°C° 0 mm 2 mps 701 mmHg 47%
    02:00 -5°C° 0 mm 2 mps 701 mmHg 46%
    03:00 -5°C° 0 mm 2 mps 701 mmHg 45%
    04:00 -6°C° 0 mm 3 mps 701 mmHg 45%
    05:00 -6°C° 0 mm 3 mps 701 mmHg 45%
    06:00 -6°C° 0 mm 3 mps 701 mmHg 45%
    07:00 -5°C° 0 mm 3 mps 701 mmHg 44%
    08:00 -2°C° 0 mm 2 mps 701 mmHg 43%
    09:00 -1°C° 0 mm 2 mps 701 mmHg 42%
    10:00 +1°C° 0 mm 2 mps 701 mmHg 41%
    11:00 +3°C° 0 mm 2 mps 701 mmHg 40%
    12:00 +5°C° 0 mm 1 mps 701 mmHg 39%
    13:00 +6°C° 0 mm 1 mps 700 mmHg 41%
    14:00 +6°C° 0 mm 1 mps 700 mmHg 42%
    15:00 +6°C° 0 mm 1 mps 700 mmHg 44%
    16:00 +4°C° 0 mm 2 mps 699 mmHg 46%
    17:00 +2°C° 0 mm 2 mps 699 mmHg 48%
    18:00 +1°C° 0 mm 2 mps 699 mmHg 50%
    19:00 +1°C° 0 mm 2 mps 699 mmHg 50%
    20:00 0°C° 0 mm 3 mps 699 mmHg 49%
    21:00 0°C° 0 mm 3 mps 699 mmHg 49%
    22:00 0°C° 0 mm 3 mps 699 mmHg 49%
    23:00 0°C° 0 mm 3 mps 699 mmHg 48%
    Show more